Home > Weather > Kristiansund > Past weeks

Flag for Norway Past Weather in Kristiansund, Norway — Yesterday and Last 2 Weeks

Now
61 °F

Passing clouds.


Feels Like: 61 °F
Forecast: 54 / 69 °F
Wind: 3 mph from North

Location: Kristiansund / Kvernberget

Current Time: Jul 26, 2016 at 4:43:50 AM

Latest Report: Jul 26, 2016 at 3:50 AM


Visibility: N/A

Pressure: 29.83 "Hg

Humidity: 94%

Dew Point: 59 °F

Location of KristiansundLocation

Past Weather in Kristiansund — Graph

°F

Kristiansund Temperature Yesterday

Maximum temperature yesterday: 70 °F (at 2:50 PM)
Minimum temperature yesterday: 59 °F (at 1:20 AM)
Average temperature yesterday: 65 °F

High & Low Weather Summary for the Past Weeks

 TemperatureHumidityPressure
High86 °F (Jul 21, 3:20 PM)100% (Jul 11, 3:20 AM)30.15 "Hg (Jul 11, 3:20 AM)
Low50 °F (Jul 16, 1:20 AM)33% (Jul 21, 3:50 PM)29.42 "Hg (Jul 11, 3:50 AM)
Average59 °F82%29.89 "Hg
* Reported Jul 11 3:20 AM — Jul 26 3:20 AM, Kristiansund, Weather by CustomWeather, © 2016

Note: Actual official high and low records may vary slightly from our data, if they occured in-between our weather recording intervals... More about our weather records

Advertising

Kristiansund Weather History for the Previous 24 Hours

Scroll right to see more
 ConditionsComfort  
Time TempWeatherWind HumidityBarometerVisibility
3:20 AM
Tue, Jul 26
61 °FDrizzle. Mostly cloudy.3 mph94%29.83 "HgN/A
2:50 AM61 °FDrizzle. Mostly cloudy.3 mph94%29.86 "HgN/A
2:20 AM61 °FMostly cloudy.8 mph94%29.86 "HgN/A
1:50 AM61 °FMostly cloudy.7 mph94%29.83 "HgN/A
1:20 AM61 °FMostly cloudy.7 mph94%29.83 "HgN/A
12:50 AM61 °FMostly cloudy.8 mph94%29.83 "HgN/A
12:20 AM61 °FPartly cloudy.12 mph94%29.83 "HgN/A
11:50 PM
Mon, Jul 25
61 °FPartly cloudy.18 mph94%29.83 "HgN/A
11:20 PM63 °FLow clouds.21 mph88%29.83 "HgN/A
10:50 PM66 °FSunny.1 mph78%29.80 "Hg10 mi
10:20 PM66 °FSunny.No wind78%29.80 "Hg10 mi
9:50 PM66 °FSunny.3 mph78%29.80 "Hg10 mi
9:20 PM66 °FSunny.No wind78%29.80 "Hg10 mi
8:50 PM66 °FSunny.No wind78%29.80 "Hg10 mi
8:20 PM66 °FSunny.1 mph78%29.80 "Hg10 mi
7:50 PM66 °FPassing clouds.6 mph78%29.80 "HgN/A
7:20 PM66 °FSunny.3 mph78%29.83 "Hg10 mi
6:50 PM66 °FPassing clouds.3 mph73%29.83 "HgN/A
6:20 PM66 °FPartly sunny.5 mph78%29.83 "HgN/A
5:50 PM68 °FPartly sunny.5 mph73%29.83 "HgN/A
5:20 PM68 °FPartly sunny.5 mph73%29.86 "HgN/A
4:50 PM68 °FPartly sunny.6 mph73%29.86 "HgN/A
4:20 PM68 °FDrizzle. Partly sunny.6 mph73%29.86 "HgN/A
3:50 PM68 °FPartly sunny.5 mph73%29.86 "HgN/A
3:20 PM70 °FSunny.6 mph69%29.89 "Hg10 mi
2:50 PM70 °FPassing clouds.7 mph69%29.89 "HgN/A
2:20 PM68 °FPassing clouds.6 mph73%29.89 "HgN/A
1:50 PM68 °FSunny.6 mph73%29.89 "Hg10 mi
1:20 PM68 °FPassing clouds.5 mph73%29.92 "HgN/A
12:50 PM68 °FPassing clouds.6 mph73%29.92 "HgN/A
12:20 PM68 °FSunny.5 mph73%29.92 "Hg10 mi
11:50 AM66 °FScattered clouds.6 mph78%29.92 "HgN/A
11:20 AM66 °FScattered clouds.7 mph78%29.92 "HgN/A
10:50 AM66 °FPartly sunny.5 mph78%29.92 "HgN/A
10:20 AM64 °FPartly sunny.7 mph83%29.92 "HgN/A
9:50 AM64 °FPartly sunny.7 mph88%29.92 "HgN/A
9:20 AM64 °FPartly sunny.7 mph83%29.92 "HgN/A
8:50 AM64 °FPartly sunny.3 mph83%29.92 "HgN/A
8:20 AM64 °FPartly sunny.1 mph83%29.95 "HgN/A
7:50 AM63 °FPassing clouds.3 mph88%29.95 "HgN/A
7:20 AM63 °FPassing clouds.6 mph88%29.95 "HgN/A
6:50 AM63 °FSunny.5 mph88%29.95 "Hg10 mi
6:20 AM61 °FSunny.2 mph94%29.95 "Hg10 mi
5:50 AM61 °FPassing clouds.3 mph94%29.95 "HgN/A
5:20 AM61 °FPassing clouds.6 mph94%29.98 "HgN/A
4:50 AM61 °FPassing clouds.3 mph94%29.98 "HgN/A
4:20 AM61 °FClear.5 mph94%29.98 "Hg10 mi
Weather by CustomWeather, © 2016

See weather overviewHow to use our weather pages